[[{"header":{"parameterUnit":"m.s-1","parameterCategory":1,"la1":30.2991,"la2":30.254,"lo1":-89.0895,"lo2":-89.0444,"dy":0.0017,"dx":0.0017,"nx":28,"ny":28,"refTime":"2025-05-21T21:00:00:Z","depth":0,"parameterNumber":2,"parameterNumberName":"U-component_of_WINDS"},"data":[0,0,0,0,0,0,0,0,0,0,0,0,0,0,0,0,0,0,0,0,0,0,0,0,0,0,0,0,0,0,0,0,0,0,0,0,0,0,0,0,0,0,0,0,0,0,0,0,0,0,0,0,0,0,0,0,0,0,2.8724,2.8725,0,2.8776,2.8776,2.8777,2.8669,2.8666,2.8662,2.8659,2.8715,2.872,2.8724,0,0,0,0,0,0,0,0,0,0,0,0,0,2.8537,2.8541,2.8724,2.8725,2.8726,2.8775,2.8776,2.8777,2.867,2.8665,2.8661,2.8657,2.8714,2.8719,2.8725,0,0,0,0,0,0,0,0,0,0,0,0,0,2.8606,2.8542,2.8724,2.8678,2.8674,2.8775,2.8776,2.8777,2.8671,2.8665,2.866,2.8655,2.8712,2.8719,2.8726,2.8875,0,0,2.8748,2.8751,0,0,0,0,0,0,0,0,2.8603,2.8613,2.8684,2.8681,2.8677,2.871,2.8731,2.881,2.8672,2.8672,2.8659,2.8653,2.8718,2.8724,2.8746,2.8878,2.888,2.8748,2.8753,2.8756,2.8758,0,0,0,0,0,0,0,2.8598,2.8611,2.8745,2.8685,2.8681,2.8656,2.866,2.8745,2.8724,2.8672,2.8664,2.8671,2.8715,2.8739,2.8746,2.8881,2.8748,2.8754,2.8759,2.8762,2.9137,2.9143,0,0,0,0,0,0,2.8599,2.8607,2.8743,2.8746,2.8626,2.8663,2.8668,2.8705,2.8723,2.872,2.8676,2.8666,2.8729,2.8738,2.8748,2.8923,2.8756,2.8762,2.8766,2.9132,2.9139,2.9145,0,0,0,0,0,0,2.8595,2.8612,2.8741,2.8675,2.8689,2.8672,2.8715,2.8709,2.8732,2.8726,2.8722,2.8704,2.8726,2.8738,2.8844,2.8923,2.8765,2.8772,2.9125,2.9134,2.9142,2.9275,0,0,0,0,0,0,2.859,2.8611,2.8667,2.8677,2.8693,2.8836,2.872,2.8714,2.8745,2.8733,2.8751,2.8749,2.8722,2.8834,2.8851,2.893,2.8778,2.9118,2.9129,2.9139,2.9264,2.9287,2.9307,0,0,0,0,0,2.8584,2.8703,2.867,2.8687,2.8762,2.884,2.885,2.8815,2.8752,2.8808,2.8804,2.8748,2.8912,2.8845,2.8864,2.8947,2.9113,2.9126,2.9138,2.9254,2.9283,2.9307,0,0,0,0,0,0,2.8705,2.8704,2.8667,2.8793,2.8818,2.8822,2.8892,2.8847,2.8891,2.8878,2.8835,2.884,2.8955,2.8961,2.8887,2.9092,2.9002,2.9019,2.9083,2.9111,2.9132,2.9128,2.8784,0,0,0,0,0,2.8746,2.8808,2.8804,2.8916,2.893,2.891,2.8942,2.8913,2.8937,2.8947,2.8951,2.8977,2.9034,2.9073,2.9125,2.9264,2.9267,2.933,2.9352,2.937,2.9386,2.9459,2.9487,2.9187,2.9187,2.9187,0,0,2.8832,2.8839,2.8882,2.8941,2.8956,2.9022,2.8919,2.8993,2.9042,2.8959,2.9059,2.9063,2.9089,2.9212,2.9266,2.9221,2.9469,2.9387,2.9401,2.9407,2.9475,2.9503,2.9529,2.9196,2.9194,2.9193,0,0,2.9023,2.9035,2.9128,2.9146,2.917,2.9155,2.9178,2.9189,2.9188,2.9287,2.9225,2.9284,2.9383,2.9404,2.9428,2.9627,2.9577,2.9645,2.9759,2.9831,2.9855,2.9876,2.9946,2.9972,2.966,2.9661,2.9661,0,2.9127,2.9223,2.9183,2.9261,2.9289,2.9216,2.9311,2.933,2.9371,2.9392,2.9341,2.9463,2.9476,2.9603,2.9651,2.9673,2.9698,2.9642,2.9855,2.9875,2.9894,2.996,2.9987,2.9669,2.9668,2.9667,2.9666,0,2.935,2.9418,2.9491,2.953,2.9566,2.9653,2.9627,2.9669,2.9637,2.9628,2.973,2.9743,2.9796,2.9824,2.9795,2.9947,2.9918,2.9862,2.977,2.9931,2.9993,3.0018,2.968,2.9677,2.9675,2.9673,0,0,2.9618,2.9633,2.9661,2.9677,2.9698,2.975,2.9834,2.9885,2.9921,2.9952,3.0021,3.0107,3.0054,3.0081,3.0054,3.0117,3.0273,3.0053,3.0053,3.0093,3.044,3.0481,3.0512,3.024,3.0245,3.0249,3.0437,0,2.9805,2.9947,2.9914,3.0054,3.0116,3.0047,3.012,3.0142,3.0136,3.0188,3.0182,3.0243,3.017,3.0185,3.0245,3.0241,3.0342,3.0227,3.0304,3.0308,3.0299,3.0544,3.0588,3.0765,3.0461,3.0465,3.0468,0,3.0043,3.0081,3.0228,3.0238,3.0263,3.0329,3.0372,3.0423,3.0446,3.0437,3.0468,3.0427,3.0511,3.0419,3.0533,3.0456,3.0486,3.0489,3.0495,3.05,3.0397,3.0555,3.0821,3.0848,3.0506,3.0503,3.05,0,3.0223,3.0311,3.041,3.0427,3.0441,3.0489,3.0498,3.0515,3.0548,3.0586,3.0607,3.0655,3.0682,3.072,3.0695,3.063,3.0813,3.0719,3.0808,3.0809,3.0849,3.0847,3.1123,3.0871,3.087,3.087,3.0869,0,3.0436,3.0528,3.0491,3.0551,3.0653,3.0614,3.0716,3.0716,3.0733,3.0793,3.0737,3.0795,3.0758,3.0813,3.0794,3.0891,3.0904,3.0899,3.0893,3.0903,3.0904,3.0922,3.0908,3.0877,3.0875,3.0874,3.0873,0,3.0653,3.0632,3.0735,3.074,3.0743,3.0818,3.0822,3.0879,3.0869,3.0946,3.0962,3.0946,3.1008,3.0986,3.1053,3.104,3.1164,3.1142,3.1155,3.1149,3.1239,3.1231,3.1536,3.1573,3.1298,3.13,3.1303,0,3.079,3.0859,3.0871,3.0906,3.0918,3.0977,3.1009,3.0974,3.101,3.1041,3.1094,3.1151,3.1194,3.1297,3.1292,3.1343,3.1321,3.1425,3.1328,3.1337,3.1321,3.1317,3.1323,3.1444,3.1447,3.1449,3.1451,0,3.1034,3.102,3.1068,3.1112,3.1152,3.1186,3.1215,3.1248,3.1214,3.1257,3.1319,3.1353,3.142,3.1477,3.1523,3.1532,3.1487,3.1482,3.1505,3.1516,3.152,3.1518,3.1207,3.1475,3.1472,3.1471,3.147,3.1469,3.1214,3.1272,3.1289,3.1344,3.1362,3.139,3.1443,3.1439,3.149,3.1541,3.1517,3.1589,3.161,3.1666,3.1682,3.1738,3.1698,3.1732,3.174,3.1749,3.176,3.1513,3.1747,3.1746,3.1745,3.1745,3.1744,0,3.1455,3.1462,3.1513,3.1555,3.1598,3.1551,3.158,3.162,3.1683,3.1706,3.1749,3.182,3.1875,3.1875,3.1926,3.1971,3.1951,3.1985,3.1981,3.1984,3.1793,3.1767,3.2,3.2,3.2,3.2,3.2,3.2,3.1585,3.1679,3.1668,3.1771,3.1778,3.1846,3.1867,3.1893,3.1911,3.1992,3.2037,3.2035,3.2049,3.2101,3.2149,3.2147,3.2168,3.221,3.2201,3.2023,3.1997,3.1973,3.1949,3.2216,3.2216,3.2387,3.2388,3.2389]},{"header":{"parameterUnit":"m.s-1","parameterCategory":1,"la1":30.2991,"la2":30.254,"lo1":-89.0895,"lo2":-89.0444,"dy":0.0017,"dx":0.0017,"nx":28,"ny":28,"refTime":"2025-05-21T21:00:00:Z","depth":0,"parameterNumber":3,"parameterNumberName":"V-component_of_WINDS"},"data":[0,0,0,0,0,0,0,0,0,0,0,0,0,0,0,0,0,0,0,0,0,0,0,0,0,0,0,0,0,0,0,0,0,0,0,0,0,0,0,0,0,0,0,0,0,0,0,0,0,0,0,0,0,0,0,0,0,0,-0.1058,-0.1058,0,-0.1051,-0.1051,-0.1051,-0.1063,-0.1064,-0.1064,-0.1064,-0.1054,-0.1054,-0.1053,0,0,0,0,0,0,0,0,0,0,0,0,0,-0.108,-0.108,-0.1058,-0.1058,-0.1058,-0.1051,-0.1051,-0.1051,-0.1063,-0.1064,-0.1064,-0.1065,-0.1055,-0.1054,-0.1053,0,0,0,0,0,0,0,0,0,0,0,0,0,-0.1071,-0.1079,-0.1058,-0.1063,-0.1064,-0.1051,-0.1051,-0.1051,-0.1063,-0.1064,-0.1064,-0.1065,-0.1055,-0.1054,-0.1053,-0.1034,0,0,-0.105,-0.1049,0,0,0,0,0,0,0,0,-0.1072,-0.1071,-0.1063,-0.1063,-0.1063,-0.1059,-0.1055,-0.1045,-0.1063,-0.1063,-0.1065,-0.1065,-0.1055,-0.1054,-0.1051,-0.1033,-0.1033,-0.105,-0.1049,-0.1049,-0.1048,0,0,0,0,0,0,0,-0.1072,-0.1071,-0.1055,-0.1062,-0.1063,-0.1065,-0.1065,-0.1053,-0.1056,-0.1063,-0.1064,-0.1063,-0.1055,-0.1052,-0.1051,-0.1033,-0.105,-0.1049,-0.1048,-0.1048,-0.1,-0.0999,0,0,0,0,0,0,-0.1073,-0.1071,-0.1055,-0.1055,-0.1069,-0.1064,-0.1064,-0.1059,-0.1056,-0.1056,-0.1063,-0.1064,-0.1054,-0.1052,-0.1051,-0.1029,-0.1049,-0.1048,-0.1047,-0.1,-0.1,-0.0999,0,0,0,0,0,0,-0.1073,-0.1071,-0.1056,-0.1063,-0.1062,-0.1063,-0.1058,-0.1059,-0.1056,-0.1055,-0.1056,-0.1059,-0.1054,-0.1052,-0.1038,-0.1028,-0.1047,-0.1046,-0.1001,-0.1,-0.0999,-0.0984,0,0,0,0,0,0,-0.1074,-0.1071,-0.1064,-0.1063,-0.1061,-0.1044,-0.1058,-0.1058,-0.1055,-0.1056,-0.1052,-0.1052,-0.1054,-0.104,-0.1037,-0.1027,-0.1046,-0.1002,-0.1001,-0.1,-0.0985,-0.0982,-0.098,0,0,0,0,0,-0.1075,-0.106,-0.1064,-0.1062,-0.1053,-0.1043,-0.1042,-0.1046,-0.1054,-0.1047,-0.1046,-0.1052,-0.103,-0.1038,-0.1036,-0.1025,-0.1003,-0.1001,-0.1,-0.0986,-0.0983,-0.098,0,0,0,0,0,0,-0.1058,-0.1059,-0.1064,-0.1049,-0.1046,-0.1045,-0.1036,-0.1042,-0.1036,-0.1037,-0.1042,-0.1041,-0.1026,-0.1024,-0.1033,-0.1007,-0.1018,-0.1016,-0.1008,-0.1005,-0.1003,-0.1003,-0.1045,0,0,0,0,0,-0.1053,-0.1046,-0.1047,-0.1033,-0.1032,-0.1034,-0.103,-0.1034,-0.1031,-0.1029,-0.1028,-0.1024,-0.1016,-0.1011,-0.1003,-0.0986,-0.0985,-0.0977,-0.0975,-0.0972,-0.097,-0.0961,-0.0957,-0.0994,-0.0994,-0.0994,0,0,-0.1042,-0.1042,-0.1037,-0.103,-0.1028,-0.102,-0.1033,-0.1024,-0.1018,-0.1027,-0.1014,-0.1014,-0.1009,-0.0994,-0.0986,-0.0992,-0.096,-0.097,-0.0969,-0.0968,-0.0959,-0.0955,-0.0952,-0.0993,-0.0993,-0.0993,0,0,-0.1017,-0.1017,-0.1005,-0.1003,-0.1001,-0.1003,-0.1001,-0.0999,-0.1,-0.0987,-0.0994,-0.0987,-0.0973,-0.097,-0.0967,-0.0943,-0.0948,-0.094,-0.0926,-0.0917,-0.0914,-0.0912,-0.0903,-0.09,-0.0938,-0.0938,-0.0938,0,-0.1003,-0.0992,-0.0998,-0.0989,-0.0986,-0.0996,-0.0984,-0.0982,-0.0977,-0.0974,-0.098,-0.0964,-0.0962,-0.0946,-0.094,-0.0937,-0.0934,-0.094,-0.0914,-0.0912,-0.0909,-0.0901,-0.0898,-0.0937,-0.0937,-0.0937,-0.0938,0,-0.0975,-0.0967,-0.0958,-0.0954,-0.095,-0.094,-0.0944,-0.0939,-0.0943,-0.0944,-0.0932,-0.093,-0.0923,-0.0919,-0.0923,-0.0904,-0.0907,-0.0914,-0.0924,-0.0905,-0.0897,-0.0894,-0.0936,-0.0936,-0.0937,-0.0937,0,0,-0.0938,-0.0939,-0.0936,-0.0934,-0.0933,-0.0927,-0.0917,-0.0911,-0.0907,-0.0904,-0.0895,-0.0884,-0.0891,-0.0887,-0.089,-0.0882,-0.0863,-0.089,-0.089,-0.0885,-0.0842,-0.0837,-0.0833,-0.0867,-0.0867,-0.0866,-0.0843,0,-0.0913,-0.0897,-0.0903,-0.0886,-0.0879,-0.0889,-0.088,-0.0878,-0.088,-0.0873,-0.0875,-0.0867,-0.0876,-0.0874,-0.0867,-0.0867,-0.0855,-0.0869,-0.0859,-0.0858,-0.0859,-0.0829,-0.0823,-0.08,-0.084,-0.0839,-0.0839,0,-0.0882,-0.0879,-0.0861,-0.0862,-0.0859,-0.0852,-0.0847,-0.0841,-0.084,-0.0841,-0.0838,-0.0843,-0.0833,-0.0845,-0.0831,-0.084,-0.0837,-0.0836,-0.0836,-0.0834,-0.0847,-0.0826,-0.0793,-0.0789,-0.0834,-0.0834,-0.0835,0,-0.0856,-0.0848,-0.0836,-0.0835,-0.0836,-0.083,-0.083,-0.0829,-0.0826,-0.0822,-0.0819,-0.0814,-0.0811,-0.0806,-0.081,-0.0818,-0.0795,-0.0807,-0.0796,-0.0795,-0.0789,-0.0789,-0.0755,-0.0788,-0.0788,-0.0788,-0.0788,0,-0.0828,-0.0816,-0.0825,-0.0818,-0.0806,-0.0813,-0.08,-0.0802,-0.0801,-0.0794,-0.0802,-0.0795,-0.0801,-0.0794,-0.0797,-0.0785,-0.0784,-0.0784,-0.0785,-0.0783,-0.0783,-0.078,-0.0781,-0.0787,-0.0788,-0.0788,-0.0788,0,-0.0796,-0.0802,-0.079,-0.0793,-0.0793,-0.0784,-0.0786,-0.0779,-0.0782,-0.0773,-0.0771,-0.0775,-0.0768,-0.0772,-0.0764,-0.0766,-0.075,-0.0753,-0.0751,-0.0751,-0.074,-0.074,-0.0701,-0.0696,-0.0733,-0.0733,-0.0733,0,-0.0777,-0.0769,-0.0771,-0.0768,-0.0768,-0.0762,-0.0759,-0.0766,-0.0762,-0.076,-0.0753,-0.0748,-0.0743,-0.0731,-0.0733,-0.0727,-0.073,-0.0716,-0.0729,-0.0727,-0.0729,-0.0729,-0.0728,-0.0713,-0.0713,-0.0713,-0.0712,0,-0.0743,-0.0746,-0.0742,-0.0739,-0.0735,-0.0733,-0.0731,-0.0727,-0.0734,-0.073,-0.0723,-0.072,-0.0713,-0.0707,-0.0702,-0.0702,-0.0708,-0.0709,-0.0706,-0.0703,-0.0702,-0.0702,-0.0743,-0.0709,-0.0709,-0.071,-0.071,-0.071,-0.0717,-0.071,-0.0711,-0.0706,-0.0706,-0.0704,-0.0698,-0.0701,-0.0696,-0.0692,-0.0696,-0.0688,-0.0688,-0.0682,-0.0681,-0.0675,-0.068,-0.0675,-0.0674,-0.0673,-0.0671,-0.0704,-0.0674,-0.0674,-0.0674,-0.0674,-0.0674,0,-0.0682,-0.0684,-0.0679,-0.0677,-0.0673,-0.0681,-0.068,-0.0676,-0.067,-0.0669,-0.0665,-0.0657,-0.0652,-0.0654,-0.0649,-0.0643,-0.0646,-0.0642,-0.0642,-0.0641,-0.0667,-0.067,-0.0639,-0.0639,-0.0639,-0.064,-0.064,-0.064,-0.0664,-0.0653,-0.0657,-0.0647,-0.0648,-0.0641,-0.064,-0.0639,-0.0638,-0.063,-0.0626,-0.0628,-0.0628,-0.0623,-0.0618,-0.0619,-0.0616,-0.0611,-0.0612,-0.0636,-0.0639,-0.0643,-0.0646,-0.061,-0.061,-0.0587,-0.0587,-0.0587]}]]